User: anonymous   Login
Location: Bois de la Silve
(44.4667°N, 6.7833°E)
Time: 01:46:19
(UTC+00:00)
Language:

CZ-4 R/B - Orbit

View from above orbital plane
View from above orbital plane
View from above satellite
View from above satellite

Ground track
Ground track

The orbit data is extracted from the following two-line orbital elements,

1 28059U 03049C   20272.37070451 +.00000025 +00000-0 +17705-4 0  9991
2 28059 098.4819 190.0443 0049944 182.6285 177.4655 14.52611409897774
Epoch (UTC): 28 September 2020 08:53:48
Eccentricity: 0.0049944
inclination: 98.4819°
perigee height: 682 km
apogee height: 752 km
right ascension of ascending node: 190.0443°
argument of perigee: 182.6285°
revolutions per day: 14.52611409
mean anomaly at epoch: 177.4655°
orbit number at epoch: 89777

The dashed part of the orbit path shows where the satellite is in the earth's shadow,  

DLR